Wind_Speed
39 38 36 35 34 35 35 36 36 36 37 37 38 39 40 40 41 41 41 41 41 40 40 40 41 41 41 42 43 43 43 43 43 43 44 45 45 46 47 47 48 48
38 37 36 35 34 33 34 34 35 35 36 37 38 39 40 40 41 41 41 41 41 40 40 41 41 41 42 43 43 44 44 44 44 44 45 46 47 47 48 49 50 49
36 36 36 35 33 33 33 34 35 35 37 38 39 39 39 40 41 41 41 41 41 40 40 41 42 42 43 43 44 45 45 45 45 46 46 47 48 49 49 50 51 51
35 35 35 35 34 34 34 35 36 37 38 39 40 40 40 40 41 41 42 41 41 41 41 41 42 43 44 45 45 46 46 45 46 47 47 48 49 50 51 51 52 52
36 36 36 36 35 35 36 36 37 38 39 40 40 41 41 42 42 43 43 43 42 42 42 42 43 44 45 46 46 47 46 46 47 48 48 49 50 51 52 52 52 53
37 37 36 36 36 36 36 36 37 38 39 40 40 41 42 43 43 44 44 44 44 43 43 43 44 45 46 47 47 48 47 47 47 49 49 50 52 53 53 53 53 54
38 37 36 36 36 37 37 37 37 38 39 40 40 41 42 43 44 45 45 45 45 44 43 44 45 46 46 47 48 48 48 48 48 49 51 52 53 54 54 54 54 55
37 36 36 36 37 38 38 39 39 39 41 41 42 43 43 44 44 45 46 46 46 46 45 44 45 46 47 48 49 49 49 49 50 50 52 53 55 55 55 56 56 56
37 37 37 38 39 39 39 40 40 41 42 43 44 45 45 45 45 46 46 47 47 46 46 45 45 46 47 49 49 50 50 51 51 52 54 55 56 57 57 57 57 57
37 38 39 39 40 39 40 40 40 41 42 43 44 45 46 47 47 47 47 48 47 47 47 47 46 47 48 49 50 51 51 52 53 54 55 56 57 58 58 58 58 58
38 39 40 40 39 39 40 40 40 41 42 43 44 45 46 47 47 48 48 49 49 49 48 48 48 48 49 49 51 52 52 53 54 55 56 57 59 59 59 59 59 59
39 39 39 39 40 40 40 39 39 40 42 43 45 46 46 46 47 47 48 49 50 51 51 50 50 50 50 50 50 52 53 54 55 56 57 59 60 60 60 60 60 60
40 40 39 39 40 41 40 40 40 41 43 44 46 46 46 46 47 47 48 49 50 51 51 52 52 52 52 51 51 51 52 54 56 57 58 60 60 62 62 62 63 63
42 41 40 40 40 41 41 41 42 43 44 46 47 47 47 48 48 48 49 49 50 50 51 52 53 54 53 52 51 51 52 54 56 58 59 61 62 64 65 65 65 65
42 42 41 41 41 41 42 43 44 45 46 47 47 47 48 49 50 50 51 51 51 51 52 52 53 54 54 53 53 52 53 54 56 58 60 62 64 66 67 67 67 67
43 43 43 43 43 43 44 45 46 47 47 48 48 48 48 50 51 51 52 52 52 53 53 53 54 54 54 54 54 54 55 55 57 59 61 63 65 66 67 67 68 68
45 45 45 46 46 47 48 48 48 48 48 48 48 48 49 50 51 52 53 53 54 54 54 54 55 55 56 56 56 57 57 57 58 60 62 64 65 66 66 67 68 69
47 47 48 48 49 50 50 51 51 50 49 49 50 50 51 52 52 53 54 55 55 55 56 56 56 57 58 59 59 60 60 60 60 61 63 64 65 65 66 68 69 70
50 50 51 51 51 52 52 53 53 53 53 53 53 54 54 53 54 54 55 56 56 57 57 58 58 58 59 60 61 62 63 63 63 63 64 65 65 66 68 69 70 71
52 52 52 52 53 54 55 55 56 57 57 57 57 56 56 56 56 56 57 57 58 59 59 60 61 61 61 61 62 63 64 65 65 65 65 66 66 67 68 70 72 74
55 54 53 54 55 56 57 58 58 58 58 59 59 59 59 59 59 59 60 60 61 61 62 62 62 63 63 63 64 64 64 65 66 66 67 68 69 70 71 72 74 75
58 57 58 58 59 60 60 61 60 60 60 61 62 62 62 63 63 64 63 64 64 64 64 64 64 65 65 66 66 65 65 66 66 67 69 70 70 71 73 75 76 77
62 62 62 63 64 64 64 64 64 64 64 64 64 65 65 66 67 67 66 66 65 65 65 65 66 66 67 68 68 67 67 68 68 68 70 71 72 75 77 79 79 79
65 66 67 67 68 68 68 68 68 68 68 68 68 68 68 67 67 67 67 66 66 66 66 66 66 67 69 70 69 69 70 70 70 70 71 72 74 75 76 76 76 78
68 69 70 70 71 71 71 72 72 72 72 72 71 71 70 70 69 68 67 66 66 66 66 66 67 68 70 71 70 69 70 71 71 71 71 72 73 73 72 72 72 73
72 72 73 73 74 74 74 74 74 75 75 75 75 74 74 74 73 72 71 70 69 68 67 67 67 69 70 71 71 71 72 73 73 73 73 73 74 74 74 74 74 73
Wind_Direction
289 288 287 287 288 289 289 289 289 290 290 290 290 290 290 291 291 291 291 291 290 289 287 284 282 280 278 278 278 278 278 277 277 276 277 277 277 278 278 279 279 280
285 284 284 285 285 286 287 287 288 289 288 288 288 288 289 289 290 291 291 291 290 288 286 284 282 280 278 277 277 278 278 277 277 276 277 277 277 278 278 279 279 280
282 282 282 283 284 285 286 287 287 287 286 285 286 286 287 288 289 290 291 291 290 289 286 283 281 279 278 277 277 278 278 278 277 276 276 277 277 278 278 279 280 280
282 282 282 282 283 285 287 287 287 287 286 285 285 285 286 286 287 288 289 290 290 289 287 284 281 279 278 277 277 278 278 277 276 276 277 277 277 278 278 279 280 280
282 282 281 282 283 285 286 286 287 287 287 287 286 286 286 286 286 286 287 288 289 289 287 285 282 280 278 277 277 277 277 276 276 276 277 277 277 278 279 280 280 280
284 283 283 283 283 284 285 286 286 287 287 287 287 287 287 286 286 286 286 286 287 288 288 286 284 282 280 278 277 277 276 276 276 276 277 277 278 278 279 280 280 280
285 285 284 284 283 283 284 285 286 286 286 286 286 286 285 285 285 285 285 285 286 286 287 286 284 283 281 279 278 277 277 276 276 276 277 277 278 279 279 280 279 279
285 285 284 283 282 283 283 284 285 286 286 285 285 284 284 283 283 283 284 284 284 284 285 284 284 283 281 280 279 278 277 277 277 276 277 277 278 279 279 279 279 279
283 283 282 281 281 281 282 284 284 285 285 285 285 285 284 283 282 282 282 283 283 284 284 283 283 282 281 280 279 278 278 277 277 277 277 278 279 279 279 279 279 280
281 281 281 280 280 281 282 284 285 285 286 286 287 287 286 285 284 283 283 282 283 283 283 282 281 280 280 279 278 278 278 277 277 277 278 278 278 278 278 279 279 279
280 280 280 280 280 281 283 285 285 285 286 286 287 288 288 287 286 286 285 284 283 282 282 282 282 280 279 278 278 278 278 278 278 278 278 278 278 278 278 279 279 279
280 280 280 280 281 282 284 285 285 285 285 286 286 287 288 289 288 288 287 285 284 283 283 283 282 282 281 279 278 277 277 278 278 278 278 278 278 279 279 279 279 278
280 280 281 281 281 282 283 285 285 285 285 286 287 287 288 289 289 289 289 288 287 286 285 284 283 283 282 280 278 277 278 278 278 278 278 278 279 279 279 279 278 278
282 282 282 281 281 282 283 285 286 287 287 287 287 288 289 290 290 291 291 290 289 288 286 285 284 283 283 281 280 278 277 277 278 279 279 279 279 279 279 278 278 278
282 283 283 282 282 282 284 286 287 288 287 287 287 288 289 290 291 291 291 291 291 290 288 287 286 285 284 282 281 279 278 277 278 279 279 279 279 278 279 279 279 280
283 283 283 283 284 284 284 286 287 288 288 287 287 287 288 289 289 289 290 291 291 290 289 288 288 287 285 284 282 281 279 279 279 279 280 280 279 279 280 281 281 281
284 284 284 284 285 285 286 287 288 289 288 288 287 287 287 288 289 289 289 290 290 290 289 289 288 288 286 285 284 283 282 281 280 279 279 279 279 280 281 282 282 282
287 286 286 285 286 286 287 288 289 290 289 288 288 289 289 289 290 290 289 289 289 289 289 289 288 287 285 285 285 284 283 282 281 280 280 280 280 281 282 282 283 283
289 288 288 287 287 288 289 290 290 291 291 290 290 290 291 292 292 292 292 291 290 289 289 288 287 286 285 284 284 283 283 283 282 282 281 281 281 281 282 282 282 282
288 288 287 287 287 289 290 291 292 292 292 292 292 292 293 293 294 294 294 293 292 290 288 287 287 286 285 284 283 283 283 283 284 284 283 282 282 282 282 282 282 281
287 286 285 285 286 288 290 291 292 292 292 292 293 293 293 294 294 294 294 293 292 291 290 288 287 286 285 284 283 283 282 282 283 284 283 282 281 282 282 282 281 280
287 287 286 286 286 288 289 290 290 290 290 291 291 292 292 293 293 293 293 292 291 290 290 289 287 286 285 284 283 283 281 281 281 281 281 282 282 282 281 281 280 279
288 287 287 287 288 288 289 289 289 289 290 290 290 290 291 291 292 292 291 290 289 288 288 287 286 285 285 284 284 282 281 280 280 280 281 281 280 280 279 278 278 278
288 288 289 289 289 289 290 290 290 291 291 291 291 291 291 291 290 290 290 288 287 286 285 285 285 284 284 283 283 283 281 281 281 280 280 280 281 281 280 280 279 278
289 289 289 290 290 290 290 291 291 292 292 292 292 293 292 292 291 291 290 288 286 284 283 283 282 282 282 282 282 281 280 280 280 279 279 280 281 283 284 285 285 283
290 290 291 291 291 291 291 292 292 292 292 293 293 293 293 293 292 292 291 289 288 286 284 282 281 280 280 280 280 279 278 278 277 277 277 278 279 281 282 283 284 284
Height
5794 5793 5792 5790 5789 5787 5786 5785 5784 5783 5782 5780 5779 5777 5776 5774 5773 5771 5770 5768 5767 5766 5765 5764 5763 5763 5762 5761 5760 5760 5758 5757 5756 5755 5754 5753 5752 5751 5749 5748 5747 5745
5790 5789 5788 5786 5785 5783 5782 5780 5779 5778 5777 5775 5774 5772 5771 5770 5768 5767 5765 5763 5762 5761 5760 5759 5758 5758 5757 5756 5755 5754 5753 5752 5751 5750 5749 5748 5747 5745 5744 5743 5741 5740
5786 5785 5783 5782 5780 5779 5777 5776 5775 5773 5772 5770 5769 5768 5766 5765 5763 5762 5761 5759 5758 5757 5755 5754 5753 5752 5752 5751 5749 5749 5748 5747 5746 5745 5744 5743 5742 5740 5739 5737 5736 5735
5782 5780 5779 5777 5776 5774 5773 5771 5770 5768 5767 5765 5764 5762 5761 5760 5758 5757 5756 5754 5753 5752 5751 5750 5748 5747 5746 5745 5744 5743 5743 5742 5740 5739 5738 5737 5736 5735 5733 5732 5730 5729
5777 5776 5774 5773 5771 5770 5768 5766 5765 5763 5762 5760 5759 5757 5756 5755 5753 5752 5750 5749 5748 5747 5745 5744 5743 5742 5741 5740 5739 5738 5737 5736 5735 5734 5733 5732 5730 5729 5727 5726 5724 5723
5772 5771 5769 5768 5766 5765 5763 5761 5760 5758 5757 5755 5754 5752 5751 5749 5748 5746 5745 5744 5742 5741 5740 5739 5738 5737 5736 5735 5733 5732 5731 5731 5729 5728 5727 5726 5725 5723 5721 5720 5719 5717
5767 5766 5764 5763 5761 5759 5758 5756 5755 5753 5751 5750 5748 5747 5745 5743 5742 5741 5739 5738 5737 5736 5735 5733 5732 5731 5730 5729 5728 5727 5726 5725 5724 5722 5721 5720 5719 5717 5716 5714 5713 5711
5762 5760 5759 5758 5756 5754 5752 5751 5749 5748 5746 5744 5743 5741 5739 5738 5736 5735 5734 5733 5732 5730 5729 5728 5727 5725 5724 5723 5722 5721 5720 5719 5718 5717 5715 5714 5712 5711 5709 5708 5706 5704
5756 5755 5753 5752 5750 5749 5747 5745 5744 5742 5740 5739 5737 5735 5734 5732 5731 5729 5728 5727 5726 5724 5723 5722 5721 5719 5718 5717 5715 5714 5713 5712 5711 5710 5709 5707 5706 5704 5702 5700 5699 5697
5750 5749 5747 5746 5745 5743 5742 5740 5739 5737 5735 5734 5732 5730 5728 5726 5725 5724 5722 5721 5720 5718 5717 5716 5714 5713 5712 5710 5709 5708 5707 5706 5704 5703 5702 5701 5699 5697 5695 5693 5692 5690
5744 5743 5741 5740 5739 5738 5736 5735 5733 5732 5730 5728 5726 5725 5723 5721 5719 5718 5717 5715 5714 5712 5711 5709 5708 5706 5705 5704 5702 5701 5700 5699 5698 5696 5694 5693 5691 5690 5688 5686 5684 5683
5738 5737 5736 5735 5734 5732 5730 5729 5727 5726 5724 5722 5721 5719 5717 5715 5714 5712 5711 5709 5708 5706 5705 5703 5702 5700 5698 5697 5696 5695 5693 5692 5691 5689 5687 5686 5684 5682 5680 5679 5677 5675
5732 5731 5730 5729 5727 5726 5725 5723 5721 5720 5718 5717 5715 5714 5712 5710 5709 5707 5705 5703 5701 5700 5698 5697 5695 5693 5691 5690 5689 5688 5687 5685 5684 5682 5680 5678 5677 5675 5673 5671 5669 5667
5726 5725 5724 5723 5721 5720 5719 5717 5716 5714 5713 5711 5709 5708 5706 5704 5703 5701 5699 5697 5695 5694 5692 5690 5688 5686 5685 5683 5682 5681 5680 5678 5677 5675 5673 5671 5670 5667 5665 5663 5661 5660
5720 5718 5717 5716 5715 5714 5712 5711 5710 5708 5706 5705 5703 5702 5700 5698 5696 5694 5693 5691 5689 5687 5686 5684 5682 5680 5678 5676 5675 5674 5672 5671 5669 5668 5666 5664 5662 5659 5657 5656 5654 5653
5713 5712 5710 5709 5708 5707 5706 5705 5704 5702 5700 5698 5697 5695 5693 5691 5689 5688 5686 5684 5683 5681 5679 5677 5676 5674 5672 5670 5668 5666 5665 5664 5662 5660 5658 5656 5654 5652 5650 5648 5647 5645
5706 5705 5704 5703 5701 5700 5699 5698 5697 5695 5694 5692 5690 5688 5686 5685 5683 5681 5679 5678 5676 5674 5672 5671 5669 5667 5665 5662 5660 5659 5657 5656 5655 5652 5650 5648 5646 5644 5642 5641 5639 5637
5698 5698 5697 5695 5694 5693 5691 5690 5689 5688 5687 5685 5683 5681 5679 5678 5676 5674 5672 5670 5669 5667 5665 5664 5662 5660 5657 5655 5653 5651 5649 5648 5646 5644 5642 5640 5638 5636 5634 5633 5631 5629
5690 5690 5689 5687 5686 5684 5683 5682 5681 5680 5678 5676 5675 5673 5671 5670 5669 5667 5665 5663 5661 5660 5658 5656 5654 5652 5649 5647 5645 5643 5640 5639 5637 5636 5634 5632 5630 5628 5627 5625 5623 5620
5683 5683 5682 5680 5678 5677 5675 5674 5673 5671 5670 5668 5666 5665 5663 5662 5660 5659 5657 5655 5653 5652 5650 5648 5647 5644 5641 5639 5637 5635 5632 5630 5628 5627 5625 5623 5622 5620 5618 5616 5614 5611
5676 5676 5675 5673 5671 5670 5668 5667 5665 5663 5662 5659 5658 5657 5655 5654 5652 5650 5649 5647 5644 5643 5641 5640 5639 5636 5633 5631 5628 5626 5624 5622 5620 5618 5616 5615 5613 5611 5609 5607 5605 5602
5668 5667 5667 5665 5664 5663 5661 5659 5657 5656 5654 5652 5651 5649 5647 5645 5643 5642 5640 5638 5636 5634 5632 5632 5631 5628 5625 5622 5620 5619 5616 5613 5612 5610 5608 5606 5604 5602 5599 5596 5594 5592
5659 5658 5658 5656 5655 5654 5652 5651 5649 5648 5646 5644 5642 5641 5639 5637 5635 5633 5631 5630 5628 5626 5624 5623 5622 5619 5616 5614 5612 5610 5607 5605 5603 5602 5599 5597 5594 5591 5588 5585 5583 5582
5650 5650 5649 5647 5646 5644 5643 5641 5640 5638 5636 5634 5633 5632 5630 5628 5626 5624 5622 5620 5618 5617 5615 5613 5613 5610 5607 5604 5603 5601 5598 5596 5594 5593 5590 5588 5585 5581 5578 5576 5576 5574
5642 5641 5640 5638 5637 5635 5633 5631 5630 5628 5626 5624 5623 5621 5619 5617 5615 5614 5613 5611 5609 5607 5605 5604 5603 5601 5597 5595 5594 5591 5588 5585 5584 5582 5581 5579 5576 5573 5571 5569 5567 5565
5633 5632 5630 5629 5627 5625 5624 5622 5620 5617 5615 5613 5612 5610 5608 5607 5605 5603 5602 5601 5599 5597 5595 5593 5592 5590 5587 5585 5583 5581 5578 5575 5573 5572 5571 5569 5566 5564 5562 5560 5558 5556